Wind_Speed
71 75 75 79 84 87 74 64 62 59 49 59 62 57 50 51 56 55 46 39 40 45 38 33 30 34 36 37 36 35 34 32 30 27 24 21 19 20 19 18 15 15 13 12 11
71 73 75 77 78 84 83 76 66 61 65 54 56 49 55 53 60 61 51 47 45 45 42 41 39 39 39 38 37 37 35 31 31 30 27 25 22 22 20 19 19 19 18 16 16
65 70 72 75 75 77 80 81 79 69 53 51 54 52 48 54 52 60 55 53 40 43 46 41 42 48 44 40 39 39 36 32 32 33 31 29 27 25 23 21 23 21 20 20 19
63 68 69 71 75 72 78 79 78 80 66 55 54 52 54 51 56 58 60 58 56 43 45 43 49 36 47 41 40 38 38 35 34 35 34 33 32 28 25 24 24 23 22 21 21
59 63 69 69 74 70 71 76 81 75 77 69 61 57 54 50 51 53 60 62 61 56 45 44 49 44 40 40 40 38 38 36 36 38 37 36 33 30 28 26 25 24 24 22 22
40 60 64 65 68 73 67 70 73 77 78 76 67 68 63 52 48 51 52 60 62 65 56 49 44 49 41 41 38 40 39 38 38 39 38 38 36 33 28 27 27 26 26 24 24
28 50 60 64 62 68 69 63 67 70 68 73 70 72 70 61 55 52 50 51 58 62 62 62 48 52 52 42 40 42 43 43 41 41 41 40 39 32 28 29 30 29 30 27 27
26 33 55 58 61 61 66 61 60 60 61 65 66 77 72 60 60 54 50 50 52 55 62 63 54 51 51 50 47 43 44 46 45 44 44 42 40 36 32 32 33 33 33 32 30
26 26 43 56 57 59 59 64 52 56 55 59 62 60 70 72 59 60 54 49 48 51 53 56 59 55 54 50 50 52 52 50 50 49 47 45 41 39 39 37 36 36 37 35 33
27 26 28 48 55 57 54 56 63 57 48 52 57 59 58 61 72 58 56 57 52 50 46 52 55 56 58 57 53 52 51 52 51 49 49 47 45 42 45 43 42 41 39 37 36
30 26 27 33 52 55 55 53 47 39 46 47 48 51 54 53 54 70 64 55 57 55 51 49 52 51 53 55 62 58 57 54 52 52 52 52 51 47 48 48 45 43 41 42 41
26 30 28 27 43 56 55 54 57 51 52 50 41 40 49 53 49 52 64 64 55 50 56 51 52 48 47 52 59 63 60 55 55 55 56 56 55 50 50 50 48 47 47 46 46
22 29 32 29 30 53 56 57 60 40 43 46 41 34 45 46 54 46 53 64 65 58 50 49 51 49 48 49 52 59 64 67 64 60 58 59 61 56 51 54 52 52 50 50 48
24 25 32 33 29 43 55 54 57 52 42 47 35 40 40 40 44 53 48 50 54 58 51 53 58 50 51 53 50 53 54 60 68 69 68 67 69 63 59 57 56 53 54 54 53
25 22 27 34 32 33 53 57 60 53 49 56 40 35 47 46 43 45 48 48 46 49 54 54 52 48 46 45 44 50 49 51 53 56 64 67 69 65 60 58 55 55 56 54 53
28 24 21 25 35 31 46 53 61 62 54 54 50 38 33 40 39 44 44 50 50 48 48 53 53 50 49 47 47 49 48 47 50 54 61 61 59 64 60 55 49 50 51 50 49
31 27 24 21 27 33 32 54 50 62 53 44 54 50 43 31 35 41 41 40 45 48 48 48 49 51 47 45 47 48 48 49 52 52 58 55 54 59 59 54 51 49 51 49 46
32 27 26 24 24 33 32 50 52 45 37 53 52 49 51 47 41 36 41 44 45 39 41 44 48 49 51 50 48 48 47 49 49 51 53 55 59 58 58 55 50 47 45 49 50
31 29 26 28 24 30 32 46 48 50 27 42 42 39 47 56 58 53 46 42 41 43 44 45 44 47 48 47 48 48 49 45 48 50 52 56 61 60 57 54 49 47 44 43 49
26 28 28 28 25 29 30 46 54 47 36 37 43 26 31 35 49 49 52 45 43 43 41 42 49 50 49 49 52 52 52 52 54 56 58 60 60 54 51 50 52 50 47 46 43
20 23 26 28 27 29 32 49 48 34 43 25 36 43 48 38 36 32 43 52 43 45 48 51 51 46 48 53 51 50 51 53 55 58 60 62 60 57 56 56 58 56 51 48 48
16 16 21 24 23 25 27 31 52 46 30 47 33 36 40 44 48 47 43 40 45 39 48 47 52 58 56 50 48 50 52 54 57 57 57 61 64 59 58 58 59 56 54 51 48
7 21 18 17 16 18 22 23 28 54 46 44 36 37 45 42 35 31 42 45 47 49 49 47 50 49 55 60 63 60 55 56 54 55 61 63 59 56 56 59 57 55 54 53 52
14 16 16 15 14 15 15 18 24 30 32 40 49 44 39 44 39 50 38 39 41 45 45 43 46 50 51 49 50 54 56 54 53 55 56 59 56 58 58 52 51 52 52 51 49
14 12 14 14 13 13 14 15 16 19 22 28 35 46 47 57 39 42 47 48 55 47 40 42 46 45 49 49 52 52 50 49 52 57 61 55 59 49 53 53 52 51 54 51 50
14 14 13 11 8 8 9 9 13 17 21 25 28 40 48 55 60 48 31 34 47 49 50 47 47 46 50 47 47 48 50 52 54 54 56 53 57 48 45 48 49 45 45 47 46
8 8 8 8 8 7 7 9 10 15 20 24 27 30 46 57 67 65 52 43 38 43 54 49 47 46 50 51 53 55 47 46 47 51 53 56 50 42 44 47 44 46 49 51 51
Wind_Direction
222 221 219 221 221 216 214 208 213 213 215 225 229 225 224 222 211 219 212 212 219 222 208 209 213 219 215 219 222 226 225 227 228 229 229 232 238 246 249 254 252 252 250 253 250
221 223 218 218 222 224 219 213 207 210 220 226 226 228 223 222 216 215 216 210 224 224 217 220 212 217 219 223 225 229 227 228 233 234 232 236 235 240 246 251 250 247 248 247 250
222 221 224 216 220 223 221 226 217 214 212 218 225 220 217 219 226 215 218 216 214 216 213 215 213 224 218 219 227 231 231 228 231 235 235 236 240 239 244 245 248 247 248 251 252
225 220 223 220 217 221 227 222 227 222 213 217 211 219 222 220 220 219 220 224 225 216 212 216 212 212 212 218 225 229 233 232 232 237 237 239 240 241 243 245 242 248 248 250 252
224 223 220 223 218 219 222 229 227 227 225 222 224 216 217 224 220 219 222 224 227 231 214 214 220 225 209 220 223 227 234 240 239 240 241 243 244 244 245 246 242 243 249 252 254
227 224 220 220 220 217 217 225 231 232 229 225 225 222 217 215 222 219 219 226 228 232 232 227 224 221 216 220 219 225 231 237 243 246 247 246 244 241 241 245 246 244 245 252 258
226 224 222 217 222 219 218 221 226 233 235 232 226 225 221 226 224 225 223 221 229 233 234 234 229 225 224 221 226 229 233 237 239 244 247 247 249 247 243 240 243 245 251 255 256
233 227 221 220 218 221 218 217 223 229 235 235 231 229 226 226 224 222 223 222 222 226 234 236 226 221 224 225 225 230 231 237 240 241 243 245 247 253 250 246 248 249 253 258 259
231 227 223 219 218 217 220 217 219 226 231 236 236 236 232 231 231 227 221 222 224 225 229 230 232 230 226 225 226 231 236 238 238 241 243 245 245 250 252 252 251 253 254 256 260
226 230 226 217 216 213 214 219 221 221 228 232 236 234 234 235 232 231 232 228 225 222 228 232 233 232 231 230 231 230 236 239 241 243 246 245 246 246 251 248 250 252 257 261 263
221 221 224 218 212 211 208 214 215 205 222 232 237 238 231 236 234 232 232 232 235 229 224 224 230 233 234 236 235 233 235 239 240 242 245 246 243 246 248 252 252 255 258 259 262
222 213 222 218 209 206 204 208 205 223 225 219 230 240 234 233 232 232 231 231 227 237 233 230 230 231 232 235 233 232 236 239 242 243 244 246 249 247 252 256 260 261 261 263 265
221 215 213 217 208 204 203 205 200 208 223 224 224 232 228 228 227 228 231 232 234 233 234 239 236 237 234 235 238 238 238 239 243 244 247 249 250 251 251 255 260 264 266 270 274
221 216 210 214 211 202 201 204 200 201 212 217 223 222 233 232 229 230 230 233 237 237 235 233 235 237 239 235 235 238 239 240 242 245 247 249 252 250 252 255 259 263 267 269 270
219 213 210 209 212 205 202 199 198 208 218 214 212 213 227 227 228 230 232 229 233 236 230 234 235 234 241 241 247 244 242 241 242 243 245 246 251 252 252 256 259 261 263 266 267
218 209 207 206 210 205 200 200 200 206 219 219 213 204 212 221 225 228 230 231 230 232 236 238 236 236 239 240 241 245 243 244 245 245 245 246 250 252 255 254 256 259 262 264 265
216 210 209 204 207 205 200 199 201 205 215 221 216 213 216 222 223 222 226 229 232 235 236 237 239 235 235 234 238 242 248 246 244 248 251 253 254 253 256 256 256 255 256 259 262
208 212 207 201 204 205 202 198 200 206 227 232 222 232 237 233 222 223 229 232 232 230 232 234 238 241 242 243 244 248 245 249 253 257 259 260 255 253 256 259 260 260 256 258 259
203 206 204 199 199 203 205 196 194 206 210 225 227 243 244 238 233 234 239 241 237 238 241 239 239 238 238 236 236 239 239 244 248 253 255 256 253 253 256 259 269 269 269 267 266
197 202 201 193 191 201 205 197 203 217 212 211 206 201 214 225 233 237 235 227 229 233 241 244 239 238 236 236 236 237 239 241 243 246 251 256 259 260 262 263 270 273 271 270 268
190 198 204 200 197 202 207 202 205 216 217 207 213 224 229 230 224 227 231 229 236 239 242 241 237 237 235 236 237 238 240 245 249 251 257 260 261 262 262 265 270 275 277 275 273
178 187 190 193 200 205 212 216 216 217 221 219 208 206 221 234 237 234 232 228 226 236 237 236 241 244 243 239 238 238 241 244 247 251 255 258 258 263 268 270 271 275 279 276 273
160 181 178 184 198 211 216 224 223 222 227 218 209 205 221 219 193 203 222 224 221 222 224 232 249 250 243 242 241 242 249 254 256 257 257 257 259 264 265 269 273 275 274 275 274
139 155 173 187 204 213 222 232 234 233 242 248 242 232 211 216 212 213 214 204 214 227 233 229 233 237 244 248 248 250 253 252 251 253 257 258 257 255 264 267 269 270 270 270 268
141 154 169 181 193 206 219 237 248 252 248 248 253 250 240 219 213 208 212 219 222 231 230 243 246 247 242 245 248 248 249 251 251 253 257 258 260 258 265 269 268 269 270 269 269
155 158 172 180 192 221 241 253 259 263 262 261 254 255 250 242 234 232 223 205 206 218 223 239 237 243 251 250 250 250 252 254 258 262 263 270 267 267 269 265 264 264 269 271 270
139 154 172 190 208 219 228 242 251 264 266 266 262 254 251 246 239 243 238 230 217 221 224 227 237 244 249 251 251 252 251 257 262 258 261 260 265 262 256 260 263 268 267 269 273
Height
5633 5640 5651 5661 5670 5678 5688 5699 5709 5717 5721 5731 5737 5746 5752 5761 5767 5773 5780 5785 5790 5796 5800 5804 5809 5813 5818 5821 5824 5828 5833 5837 5841 5845 5848 5850 5852 5853 5856 5858 5860 5861 5863 5865 5866
5619 5629 5638 5650 5658 5666 5673 5685 5694 5705 5714 5722 5729 5736 5744 5753 5759 5766 5774 5779 5784 5788 5793 5798 5805 5809 5813 5816 5819 5823 5828 5833 5838 5841 5845 5847 5849 5851 5854 5856 5856 5857 5860 5863 5864
5607 5617 5626 5636 5648 5657 5663 5670 5681 5691 5705 5714 5720 5728 5736 5743 5751 5760 5768 5775 5778 5782 5787 5792 5798 5803 5807 5811 5816 5819 5823 5829 5833 5837 5840 5843 5847 5848 5851 5853 5853 5855 5857 5860 5861
5596 5606 5615 5627 5636 5646 5654 5662 5669 5680 5689 5699 5710 5718 5727 5735 5743 5753 5761 5767 5772 5775 5781 5786 5792 5797 5800 5806 5811 5815 5819 5824 5829 5831 5835 5839 5842 5845 5847 5849 5850 5853 5855 5856 5858
5585 5595 5606 5616 5626 5636 5646 5652 5660 5668 5678 5688 5698 5709 5719 5727 5736 5745 5751 5758 5763 5765 5774 5779 5786 5790 5795 5802 5806 5809 5814 5817 5823 5827 5830 5833 5836 5839 5841 5843 5847 5849 5851 5853 5854
5577 5585 5595 5606 5617 5627 5639 5648 5654 5659 5670 5681 5689 5699 5710 5720 5725 5733 5741 5748 5754 5761 5765 5772 5778 5783 5789 5795 5800 5804 5808 5812 5816 5821 5824 5828 5831 5833 5837 5839 5842 5845 5847 5849 5851
5571 5576 5586 5597 5608 5620 5630 5640 5648 5655 5662 5671 5681 5690 5700 5709 5717 5725 5732 5740 5748 5753 5758 5765 5771 5776 5784 5788 5794 5799 5803 5806 5810 5814 5818 5821 5825 5831 5834 5834 5836 5839 5841 5844 5846
5566 5570 5578 5589 5600 5611 5623 5633 5641 5649 5655 5663 5671 5682 5691 5697 5707 5715 5724 5731 5737 5744 5751 5757 5763 5768 5775 5782 5788 5792 5797 5800 5804 5806 5810 5814 5820 5825 5828 5830 5832 5834 5836 5838 5841
5562 5566 5571 5581 5592 5603 5615 5626 5636 5643 5647 5653 5663 5671 5681 5693 5700 5706 5714 5723 5729 5735 5741 5748 5755 5762 5769 5776 5780 5785 5790 5794 5797 5800 5803 5808 5813 5818 5821 5824 5826 5828 5830 5833 5836
5558 5562 5566 5573 5584 5596 5608 5617 5628 5636 5642 5646 5653 5663 5673 5683 5691 5697 5705 5712 5720 5726 5733 5739 5745 5754 5762 5767 5773 5778 5783 5788 5791 5795 5797 5801 5805 5809 5811 5814 5818 5821 5825 5827 5830
5554 5557 5561 5566 5576 5588 5600 5611 5625 5631 5635 5645 5651 5657 5667 5672 5681 5689 5696 5703 5710 5716 5723 5731 5737 5748 5756 5760 5765 5770 5774 5779 5783 5786 5787 5790 5794 5799 5803 5806 5811 5815 5818 5820 5822
5549 5552 5556 5561 5568 5580 5592 5603 5616 5625 5630 5636 5641 5649 5655 5662 5671 5679 5687 5694 5701 5709 5715 5723 5731 5740 5744 5747 5754 5760 5765 5770 5773 5776 5778 5781 5785 5792 5796 5800 5804 5806 5808 5811 5813
5544 5548 5552 5557 5563 5573 5585 5596 5609 5617 5626 5630 5637 5641 5645 5654 5660 5670 5678 5685 5693 5701 5707 5715 5724 5730 5735 5740 5745 5750 5756 5759 5763 5767 5769 5771 5775 5783 5791 5791 5794 5797 5801 5802 5804
5540 5543 5548 5553 5562 5567 5577 5589 5602 5614 5617 5621 5628 5634 5640 5647 5654 5662 5670 5678 5685 5693 5699 5705 5712 5719 5725 5730 5735 5739 5745 5747 5751 5755 5758 5763 5761 5773 5780 5785 5787 5791 5792 5793 5793
5535 5539 5543 5551 5556 5563 5574 5584 5595 5603 5604 5612 5621 5627 5634 5640 5651 5656 5662 5669 5678 5685 5693 5701 5706 5712 5717 5725 5728 5731 5735 5737 5739 5740 5745 5750 5751 5761 5772 5776 5781 5781 5781 5781 5783
5530 5536 5542 5546 5551 5559 5566 5578 5589 5596 5598 5605 5613 5621 5627 5636 5642 5647 5654 5662 5670 5676 5683 5688 5696 5702 5708 5713 5717 5719 5724 5727 5728 5729 5731 5741 5744 5750 5759 5768 5772 5771 5771 5771 5772
5525 5531 5539 5544 5549 5556 5563 5573 5583 5590 5595 5599 5607 5615 5622 5630 5637 5642 5650 5656 5663 5670 5676 5681 5686 5694 5699 5703 5706 5711 5716 5717 5717 5720 5725 5732 5734 5746 5746 5753 5757 5761 5760 5761 5760
5520 5528 5535 5542 5548 5552 5559 5568 5576 5586 5590 5593 5601 5608 5616 5625 5631 5637 5641 5649 5657 5663 5669 5674 5680 5686 5693 5698 5702 5704 5708 5711 5713 5715 5718 5720 5722 5735 5736 5739 5744 5747 5750 5748 5749
5517 5525 5533 5540 5546 5551 5557 5562 5570 5577 5582 5588 5599 5604 5609 5616 5625 5631 5637 5645 5651 5657 5663 5667 5671 5676 5682 5687 5691 5694 5695 5704 5703 5705 5706 5707 5712 5721 5726 5728 5729 5733 5736 5738 5739
5517 5524 5531 5537 5544 5549 5555 5559 5564 5568 5578 5585 5591 5597 5603 5609 5615 5623 5630 5640 5646 5650 5653 5656 5660 5665 5669 5674 5678 5683 5688 5690 5690 5692 5694 5698 5702 5711 5717 5719 5718 5720 5722 5724 5726
5517 5524 5529 5536 5542 5548 5554 5559 5564 5567 5575 5583 5588 5594 5597 5604 5610 5616 5623 5632 5637 5641 5643 5646 5651 5656 5658 5664 5671 5675 5676 5680 5682 5684 5686 5689 5696 5702 5704 5707 5707 5707 5708 5711 5711
5521 5525 5530 5537 5543 5547 5552 5557 5563 5567 5572 5579 5582 5587 5592 5599 5605 5610 5614 5620 5627 5632 5635 5640 5641 5644 5651 5655 5659 5663 5666 5666 5666 5673 5675 5677 5682 5693 5695 5695 5695 5696 5695 5694 5696
5524 5529 5534 5538 5543 5547 5551 5555 5559 5565 5568 5571 5575 5580 5587 5594 5596 5600 5601 5610 5615 5620 5625 5628 5629 5633 5638 5643 5648 5649 5655 5658 5659 5660 5662 5666 5676 5684 5685 5682 5683 5682 5681 5681 5681
5528 5532 5536 5540 5543 5547 5551 5553 5557 5563 5566 5568 5569 5574 5580 5586 5586 5595 5596 5599 5608 5612 5613 5616 5618 5623 5630 5637 5638 5641 5645 5648 5649 5648 5656 5652 5669 5668 5667 5672 5671 5669 5665 5665 5666
5531 5535 5538 5542 5545 5548 5550 5553 5555 5557 5560 5564 5566 5566 5570 5577 5581 5584 5589 5594 5598 5601 5605 5607 5610 5613 5622 5623 5624 5628 5632 5634 5634 5643 5637 5654 5649 5665 5661 5658 5658 5656 5652 5650 5652
5535 5537 5540 5543 5546 5549 5550 5552 5553 5555 5556 5557 5560 5562 5566 5569 5571 5575 5579 5583 5587 5593 5595 5600 5603 5604 5611 5612 5613 5614 5618 5624 5628 5632 5628 5641 5638 5656 5654 5645 5644 5644 5640 5640 5642
5538 5540 5542 5544 5546 5548 5550 5552 5553 5553 5553 5553 5554 5557 5559 5559 5564 5566 5571 5578 5581 5585 5587 5591 5593 5595 5597 5602 5602 5601 5613 5617 5619 5621 5624 5621 5636 5638 5636 5635 5636 5632 5628 5628 5630